Meteo Giornale » Osservazioni meteo Francia » Lione-Satolas

ore: 04:30 - Osservazioni Meteo Lione-Satolas
Lat. 45° 44' N Lon. 5° 5' E Alt. 248 metri s.l.m.

sereno Europe/Paris

8 °C

Sereno

Temp. 24 Ore

8 °C

19 °C

Sud/Sud-Est

16.7 Km/h

Dew point 8 °C

Umidità 100 %

Visibilità  10 Km

Il sole sorge alle ore 07:56

Il sole tramonta alle ore 18:54

Data e Ora Cielo e Fenomeni T °C DP °C Um. % Pres. hPa Vis. km Vento km/h
Oggi h: 04:30 sereno Sereno 8 8 100 1018 10 S/SE 16.7
Oggi h: 04:00 sereno Sereno 8 8 100 1018 1 SE 16.7
Oggi h: 03:30 sereno Sereno 9 8 93 1018 10 S/SE 11.1
Oggi h: 03:00 poco_nuvoloso Poco Nuvoloso 9 9 100 1018 10 S 7.4
Oggi h: 02:30 sereno Sereno 9 8 93 1018 10 N 1.8
Oggi h: 02:00 sereno Sereno 9 8 93 1018 10 N 5.5
Oggi h: 01:30 sereno Sereno 10 8 87 1018 10 SE 14.8
Oggi h: 01:00 sereno Sereno 10 8 87 1018 10 SE 14.8
Oggi h: 00:30 sereno Sereno 10 9 93 1018 10 SE 13
Oggi h: 00:00 sereno Sereno 10 9 93 1018 10 SE 13
Ieri h: 23:00 sereno Sereno 11 10 93 1018 10 SE 16.7
Ieri h: 22:30 sereno Sereno 11 10 93 1018 10 S/SE 14.8
Ieri h: 22:00 sereno Sereno 11 10 93 1017 10 SE 13
Ieri h: 21:30 sereno Sereno 11 10 93 1017 10 S/SE 11.1
Ieri h: 21:00 sereno Sereno 11 10 93 1017 10 S/SE 13
Ieri h: 20:30 sereno Sereno 12 10 87 1017 10 S/SE 13
Ieri h: 20:00 sereno Sereno 12 10 87 1016 10 S/SE 13
Ieri h: 19:30 sereno Sereno 12 11 93 1016 10 SE 14.8
Ieri h: 19:00 sereno Sereno 12 11 93 1015 10 SE 9.3
Ieri h: 18:30 molto_nuvoloso Molto Nuvoloso 13 11 87 1015 10 E 9.3
Ieri h: 18:00 molto_nuvoloso Molto Nuvoloso 13 10 81 1014 10 E 9.3
Ieri h: 17:30 molto_nuvoloso Molto Nuvoloso 13 10 81 1014 10 N 5.5
Ieri h: 17:00 molto_nuvoloso Molto Nuvoloso 12 10 87 1014 10 N 3.7
Ieri h: 16:30 molto_nuvoloso Molto Nuvoloso 12 10 87 1013 10 N 5.5
Ieri h: 16:00 poco_nuvoloso Poco Nuvoloso 11 9 87 1013 10 NO 20.3
Ieri h: 15:00 molto_nuvoloso Molto Nuvoloso 15 13 87 1011 10 SE 11.1
Ieri h: 14:30 molto_nuvoloso Molto Nuvoloso 14 12 87 1011 10 S/SE 7.4
Ieri h: 14:00 molto_nuvoloso Molto Nuvoloso 14 12 87 1011 10 N 3.7
Ieri h: 13:30 coperto_pioggia Pioggia Debole 13 12 93 1011 10 N 5.5
Ieri h: 13:00 coperto_pioggia Pioggia Debole 13 12 93 1012 10 N 5.5
Ieri h: 12:30 coperto_pioggia Pioggia Debole 13 12 93 1011 10 N 3.7
Ieri h: 12:00 coperto_pioggia Pioggia Debole 13 12 93 1011 10 N 5.5
Ieri h: 11:30 coperto_pioggia Pioggia Debole 13 12 93 1010 8 NO 7.4
Ieri h: 11:00 coperto_pioggia Pioggia 13 12 93 1011 2 O 14.8
Ieri h: 10:30 coperto_pioggia Pioggia Debole 13 13 100 1010 10 S 7.4
Ieri h: 10:00 coperto_pioggia Pioggia Debole 13 13 100 1010 10 E/SE 13
Ieri h: 09:30 coperto_pioggia Pioggia 13 13 100 1010 4 E/NE 13
Ieri h: 09:00 coperto_pioggia Pioggia 13 13 100 1010 4 E/NE 9.3
Ieri h: 08:30 nuvoloso_temporali Temporale con Pioggia 13 13 100 1010 4 NE 9.3
Ieri h: 08:00 nuvoloso_temporali Temporale con Pioggia 13 13 100 1008 5 N/NE 16.7
Ieri h: 07:30 nuvoloso_temporali Temporale con Pioggia 13 13 100 1009 5 N 14.8
Ieri h: 07:00 coperto_pioggia Pioggia 14 13 93 1010 3 NE 9.3
Ieri h: 06:30 coperto_pioggia Pioggia 15 13 87 1008 3 N/NO 18.5
Ieri h: 06:00 sereno Sereno 17 15 88 1008 10 O/NO 18.5
Ieri h: 05:30 coperto_pioggia Pioggia Debole 18 14 77 1007 10 SO 11.1
Ieri h: 05:00 nuvoloso_temporali Temporale con Pioggia Debole 19 13 68 1006 10 E 9.3